Regional Weather Roundup
Issued by NWS

Home | Current Version | Previous Version | Graphics & Text | Print | Product List | Glossary On
Versions: 1 2 3 4 5 6 7 8 9 10 11 12 13 14 15 16 17 18 19 20 21 22 23 24 25 26 27 28 29 30 31 32 33 34 35 36 37 38 39 40 41 42 43 44 45 46 47 48 49 50
000
ASUS45 KCYS 222110
RWRWY

WYOMING REGIONAL WEATHER ROUNDUP
NATIONAL WEATHER SERVICE CHEYENNE WY
300 PM MDT SUN APR 22 2018

NOTE:  "FAIR" INDICATES FEW OR NO CLOUDS BELOW 12,000 FEET
WITH NO SIGNIFICANT WEATHER AND/OR OBSTRUCTIONS TO VISIBILITY.

WYZ001-222200-
YELLOWSTONE NATIONAL PARK

CITY           SKY/WX    TMP DP  RH WIND       PRES   REMARKS
LK YELLOWSTONE   N/A     53  23  31 SW8       30.17F
W YELLOWSTONE  NOT AVBL

$$
WYZ002>013-054>058-071-098>099-222200-
NORTHERN WYOMING

CITY           SKY/WX    TMP DP  RH WIND       PRES   REMARKS
JACKSON        FAIR      65  27  23 S14G24    30.10F
CODY           FAIR      64  29  26 VRB7      30.05F
GREYBULL       FAIR      67  34  29 S5        30.01F
WORLAND        FAIR      69  35  28 SE3       30.01F
SHERIDAN       FAIR      66  34  30 VRB5      30.05F
BUFFALO        FAIR      68  34  28 SE17G23   30.06F
GILLETTE       FAIR      67  41  38 VRB5      30.06F
HULETT         FAIR      64  36  34 NE9       30.09F
NEWCASTLE      FAIR      64  32  29 SE8       30.09F

$$
WYZ014>020-022>026-101>103-222200-
CENTRAL WYOMING

CITY           SKY/WX    TMP DP  RH WIND       PRES   REMARKS
BIG PINEY      PTSUNNY   65  23  20 N9        30.12F
PINEDALE       FAIR      61  27  27 W3G16     30.14F
DUBOIS         FAIR      61  21  21 W14       30.11F
LANDER         FAIR      69  30  23 N7        30.02F
RIVERTON       FAIR      66  26  22 VRB3      30.04F
CASPER         FAIR      66  35  31 SW7       30.07F
DOUGLAS        FAIR      66  39  37 SE12      30.09F

$$
WYZ021-027>030-104>119-222200-
SOUTHERN WYOMING

CITY           SKY/WX    TMP DP  RH WIND       PRES   REMARKS
EVANSTON       FAIR      65  23  20 SW12G21   30.13F
KEMMERER       FAIR      63  19  19 NW7       30.15F
FORT BRIDGER   FAIR      67  17  14 S7        30.16F
ROCK SPRINGS   FAIR      64   9  11 W9        30.13F
DIXON          FAIR      65  28  25 CALM      30.16F
RAWLINS          N/A    N/A N/A N/A MISG      30.12F
SARATOGA       MOCLDY    64  27  24 CALM      30.13F
LARAMIE        FAIR      58  29  33 VRB6      30.15F
CHEYENNE       FAIR      61  26  26 VRB5      30.14F
TORRINGTON     FAIR      61  38  42 VRB5      30.10F
PINE BLUFFS    FAIR      61  32  33 N6        30.13F

$$



USA.gov is the U.S. government's official web portal to all federal, state and local government web resources and services.